Starlink 1446

operational
NORAD ID: 45663 Int'l Des: 2020-035 Owner: SPXS Country: US Constellation: starlink
LEOCIRCULAR

About Starlink 1446

Description loading...

Live Position

Loading 3D Globe...

Upcoming Passes

Altitude History

Altitude vs Time

uPlot chart will show altitude changes over time

Two-Line Element Set

1 45663U 20035G 25258.76227079 .00060594 00000-0 21344-2 0 9996
2 45663 53.0303 102.8783 0007412 106.6051 253.5762 15.28725646292775
Epoch: Sep 15, 2025 • Age: 15 hours

Current Status

Altitude 479.1 km
Velocity 7.63 km/s
Sub-Earth Point 45.32°N, 101.4°E
Launch Date Jun 4, 2020
Age 5.2 years
Type internet

Technical Details

Classification Payload
Mass 260.00 kg
Dry Mass 248.00 kg
Total Mass 260.00 kg
Length 0.20 m
Diameter 2.80 m
Span 9.00 m
Shape Box + pan
Manufacturer SPXS
Bus Type Starlink
Phase Status In Orbit
Owner/State SPXS/US

Large Constellations

Loading constellations...